Air Resources Laboratory banner image
Air Resources Laboratory web site National Oceanic and Atmospheric Administration (NOAA)

tx zone


TXZ419-271100-
Eastern/Central El Paso County-
Including the cities of East and Northeast El Paso, Socorro,
and Fort Bliss
304 PM MDT Sat May 26 2018

.TONIGHT...Partly cloudy. Lows in the upper 60s. West winds 10 to
15 mph.
.SUNDAY...Mostly sunny. Highs 95 to 100. Southwest winds 10 to
15 mph.
.SUNDAY NIGHT...Partly cloudy. Lows 65 to 70. West winds 10 to
15 mph.
.MEMORIAL DAY...Mostly sunny. Highs in the mid 90s. West winds
10 to 15 mph.
.MONDAY NIGHT...Mostly clear. Lows in the upper 60s. Northwest
winds 5 to 10 mph.
.TUESDAY...Mostly sunny. Highs in the upper 90s.
.TUESDAY NIGHT...Clear. Lows around 70.
.WEDNESDAY...Sunny. Highs in the upper 90s.
.WEDNESDAY NIGHT...Clear. Lows in the upper 60s.
.THURSDAY...Sunny. Highs 100.
.THURSDAY NIGHT...Clear. Lows around 70.
.FRIDAY...Sunny. Highs 102.
.FRIDAY NIGHT...Clear. Lows in the lower 70s.
.SATURDAY...Sunny. Highs 102.


TXZ418-271100-
Western El Paso County-
Including the cities of Downtown El Paso, West El Paso,
and Upper Valley
304 PM MDT Sat May 26 2018

.TONIGHT...Partly cloudy. Lows 65 to 70. West winds 10 to 15 mph.
.SUNDAY...Mostly sunny. Highs in the mid 90s. Southwest winds
10 to 15 mph.
.SUNDAY NIGHT...Mostly clear. Lows 65 to 70. West winds 10 to
15 mph.
.MEMORIAL DAY...Mostly sunny. Highs 95 to 100. West winds 10 to
15 mph.
.MONDAY NIGHT...Mostly clear. Lows in the mid 60s. Northwest
winds 10 to 15 mph decreasing to up to 5 mph after midnight.
.TUESDAY...Mostly sunny. Highs in the upper 90s.
.TUESDAY NIGHT...Clear. Lows in the upper 60s.
.WEDNESDAY...Sunny. Highs 100.
.WEDNESDAY NIGHT...Clear. Lows in the upper 60s.
.THURSDAY...Sunny. Highs 101.
.THURSDAY NIGHT...Clear. Lows around 70.
.FRIDAY...Sunny. Highs 103.
.FRIDAY NIGHT...Clear. Lows in the lower 70s.
.SATURDAY...Sunny. Highs 103.


TXZ423-424-271100-
Rio Grande Valley of Eastern El Paso/Western Hudspeth Counties-
Rio Grande Valley of Eastern Hudspeth County-
Including the cities of Fabens, Fort Hancock, Tornillo,
and Indian Hot Springs
304 PM MDT Sat May 26 2018

.TONIGHT...Partly cloudy. Lows in the mid 60s. South winds 5 to
10 mph shifting to the west after midnight.
.SUNDAY...Mostly sunny in the morning then becoming partly
cloudy. Highs 95 to 100. West winds 10 to 15 mph.
.SUNDAY NIGHT...Mostly clear. Lows in the mid 60s. West winds
10 to 15 mph.
.MEMORIAL DAY...Mostly sunny. Highs 95 to 100. West winds 10 to
15 mph.
.MONDAY NIGHT...Mostly clear. Lows 65 to 70. Northwest winds 5 to
10 mph.
.TUESDAY...Sunny. Highs 100.
.TUESDAY NIGHT...Clear. Lows in the upper 60s.
.WEDNESDAY...Sunny. Highs 101.
.WEDNESDAY NIGHT...Clear. Lows in the mid 60s.
.THURSDAY...Sunny. Highs 103.
.THURSDAY NIGHT...Clear. Lows in the upper 60s.
.FRIDAY...Sunny. Highs 104.
.FRIDAY NIGHT...Clear. Lows in the upper 60s.
.SATURDAY...Sunny. Highs 104.


TXZ420-422-271100-
Northern Hudspeth Highlands/Hueco Mountains-
Southern Hudspeth Highlands-
Including the cities of Hueco Tanks, Loma Linda,
and Sierra Blanca
304 PM MDT Sat May 26 2018

.TONIGHT...Partly cloudy. Lows in the mid 60s. South winds 10 to
15 mph shifting to the west 5 to 10 mph after midnight.
.SUNDAY...Mostly sunny in the morning then becoming partly
cloudy. Highs in the mid 90s. West winds 10 to 15 mph.
.SUNDAY NIGHT...Mostly clear. Lows 60 to 65. West winds 10 to
15 mph.
.MEMORIAL DAY...Mostly sunny. Highs in the mid 90s. West winds
10 to 20 mph.
.MONDAY NIGHT...Mostly clear. Lows in the mid 60s. West winds
5 to 10 mph. Gusts up to 25 mph in the evening.
.TUESDAY...Sunny. Highs 95 to 100.
.TUESDAY NIGHT...Clear. Lows 65 to 70.
.WEDNESDAY...Sunny. Highs in the upper 90s.
.WEDNESDAY NIGHT...Clear. Lows in the mid 60s.
.THURSDAY...Sunny. Highs 100.
.THURSDAY NIGHT...Clear. Lows in the upper 60s.
.FRIDAY...Sunny. Highs 102.
.FRIDAY NIGHT...Clear. Lows in the upper 60s.
.SATURDAY...Sunny. Highs 101.


TXZ421-271100-
Salt Basin-
Including the cities of Cornudas, Dell City, and Salt Flat
304 PM MDT Sat May 26 2018

.TONIGHT...Partly cloudy. Lows 60 to 65. Southeast winds 10 to
15 mph shifting to the southwest 5 to 10 mph after midnight.
.SUNDAY...Mostly sunny in the morning then becoming partly
cloudy. Highs in the upper 90s. West winds 10 to 15 mph.
.SUNDAY NIGHT...Mostly clear. Lows around 60. West winds 5 to
10 mph.
.MEMORIAL DAY...Mostly sunny. Highs 95 to 100. West winds 10 to
20 mph.
.MONDAY NIGHT...Mostly clear. Lows 60 to 65. Northwest winds 5 to
10 mph. Gusts up to 25 mph in the evening.
.TUESDAY...Sunny. Highs 101.
.TUESDAY NIGHT...Clear. Lows in the mid 60s.
.WEDNESDAY...Sunny. Highs 102.
.WEDNESDAY NIGHT...Clear. Lows in the mid 60s.
.THURSDAY...Sunny. Highs 101.
.THURSDAY NIGHT...Clear. Lows 65 to 70.
.FRIDAY...Sunny. Highs 106.
.FRIDAY NIGHT...Clear. Lows in the upper 60s.
.SATURDAY...Sunny. Highs 104.


SCZ050-WAZ558-NCZ071-TXZ119-213-PAZ071-DCZ001-FLZ074-172-MI076-
NYZ176-178-MAZ016-IL014-TNZ027-NJZ106-GAZ044-MD014-262200-

...Gateway Observations for Charleston International...

CITY           SKY/WX    TMP DP  RH WIND       PRES   REMARKS
Chas Airport   PTSUNNY   83  71  67 S16       29.94F
Seattle        PTSUNNY   65  44  46 VRB5      30.18S
Charlotte      PTSUNNY   82  68  61 S12       29.90F
Dallas DFW     MOSUNNY   95  67  39 SE10      29.75F HX  99
Dallas Love    PTSUNNY   96  68  39 SE8       29.76F HX 101
Philladelphia  PTSUNNY   86  69  56 W6        29.79S THUNDER HX  90
Wash National  CLOUDY    84  70  62 S5        29.83S
Baltimore      PTSUNNY   76  72  87 W5        29.82R
Miami          LGT RAIN  73  72  96 E14       29.87F
Detroit        PTSUNNY   77  66  68 S9        29.79S
Newark         PTSUNNY   90  64  42 W12       29.77S HX  91
Laguardia      PTSUNNY   87  67  51 S12       29.77R HX  90
J F K          PTSUNNY   78  69  73 S15       29.80R
Boston Logan   CLOUDY    88  56  33 W6        29.76R
Ft. Lauderdale LGT RAIN  72  71  97 E15       29.88F
Chicago O'Hare FAIR      89  59  36 W8        29.74F
Chicago Midway FAIR      87  62  43 VRB3      29.75S
Houston Bush   PTSUNNY   92  72  51 W5        29.78F HX  99
Houston Hobby  PTSUNNY   91  72  53 S5        29.77F HX  98
Nashville      CLOUDY    74  70  87 SW5       29.87F
Atlanta        PTSUNNY   85  67  54 VRB3      29.89F


GAZ044-118-TXZ119-213-NCZ071-DCZ001-MDZ014-506-PAZ021-071-NJZ106-
NYZ176-178-MAZ106-OHZ011-021-055-MIZ076-KYZ091-ILZ014-INZ047-
MNZ060-ONZ431-262200-

...Gateway Observations for Savannah International...

CITY           SKY/WX    TMP DP  RH WIND       PRES   REMARKS
Savannah Arpt  PTSUNNY   84  70  62 S15       29.93F
Atlanta        PTSUNNY   85  67  54 VRB3      29.89F
Charlotte      PTSUNNY   82  68  61 S12       29.90F
Dallas DFW     MOSUNNY   95  67  39 SE10      29.75F HX  99
Houston Bush   PTSUNNY   92  72  51 W5        29.78F HX  99
Wash National  CLOUDY    84  70  62 S5        29.83S
Wash Dulles    PTSUNNY   81  74  79 CALM      29.84R
Baltimore      PTSUNNY   76  72  87 W5        29.82R
Philadelphia   PTSUNNY   86  69  56 W6        29.79S THUNDER HX  90
Newark         PTSUNNY   90  64  42 W12       29.77S HX  91
Laguardia      PTSUNNY   87  67  51 S12       29.77R HX  90
J F K          PTSUNNY   78  69  73 S15       29.80R
Boston         CLOUDY    88  56  33 W6        29.76R
Pittsburg      PTSUNNY   77  64  64 N3        29.84F
Akron          PTSUNNY   78  67  68 SE6       29.83F
Cleveland      PTSUNNY   81  66  60 VRB3      29.81F
Cincinnati     LGT RAIN  73  71  93 CALM      29.81F
Columbus       FAIR      85  65  52 MISG      29.78F
Detroit        PTSUNNY   77  66  68 S9        29.79S
Chicago O'Hare FAIR      89  59  36 W8        29.74F
Minneapolis    FAIR      93  54  26 W9        29.69F HX  91
Indianapolis   PTSUNNY   87  63  44 W14       29.78F
Toronto Canada PTSUNNY   81  61  50 S12       29.77S


SCZ050-WAZ558-NCZ071-TXZ119-213-PAZ071-DCZ001-FLZ074-172-MI076-
NYZ176-178-MAZ016-IL014-TNZ027-NJZ106-GAZ044-MD014-262200-

...Gateway Observations for Charleston International...

CITY           SKY/WX    TMP DP  RH WIND       PRES   REMARKS
Chas Airport   PTSUNNY   83  71  67 S16       29.94F
Seattle        PTSUNNY   65  44  46 VRB5      30.18S
Charlotte      PTSUNNY   82  68  61 S12       29.90F
Dallas DFW     MOSUNNY   95  67  39 SE10      29.75F HX  99
Dallas Love    PTSUNNY   96  68  39 SE8       29.76F HX 101
Philladelphia  PTSUNNY   86  69  56 W6        29.79S THUNDER HX  90
Wash National  CLOUDY    84  70  62 S5        29.83S
Baltimore      PTSUNNY   76  72  87 W5        29.82R
Miami          LGT RAIN  73  72  96 E14       29.87F
Detroit        PTSUNNY   77  66  68 S9        29.79S
Newark         PTSUNNY   90  64  42 W12       29.77S HX  91
Laguardia      PTSUNNY   87  67  51 S12       29.77R HX  90
J F K          PTSUNNY   78  69  73 S15       29.80R
Boston Logan   CLOUDY    88  56  33 W6        29.76R
Ft. Lauderdale LGT RAIN  72  71  97 E15       29.88F
Chicago O'Hare FAIR      89  59  36 W8        29.74F
Chicago Midway FAIR      87  62  43 VRB3      29.75S
Houston Bush   PTSUNNY   92  72  51 W5        29.78F HX  99
Houston Hobby  PTSUNNY   91  72  53 S5        29.77F HX  98
Nashville      CLOUDY    74  70  87 SW5       29.87F
Atlanta        PTSUNNY   85  67  54 VRB3      29.89F


GAZ044-118-TXZ119-213-NCZ071-DCZ001-MDZ014-506-PAZ021-071-NJZ106-
NYZ176-178-MAZ106-OHZ011-021-055-MIZ076-KYZ091-ILZ014-INZ047-
MNZ060-ONZ431-262200-

...Gateway Observations for Savannah International...

CITY           SKY/WX    TMP DP  RH WIND       PRES   REMARKS
Savannah Arpt  PTSUNNY   84  70  62 S15       29.93F
Atlanta        PTSUNNY   85  67  54 VRB3      29.89F
Charlotte      PTSUNNY   82  68  61 S12       29.90F
Dallas DFW     MOSUNNY   95  67  39 SE10      29.75F HX  99
Houston Bush   PTSUNNY   92  72  51 W5        29.78F HX  99
Wash National  CLOUDY    84  70  62 S5        29.83S
Wash Dulles    PTSUNNY   81  74  79 CALM      29.84R
Baltimore      PTSUNNY   76  72  87 W5        29.82R
Philadelphia   PTSUNNY   86  69  56 W6        29.79S THUNDER HX  90
Newark         PTSUNNY   90  64  42 W12       29.77S HX  91
Laguardia      PTSUNNY   87  67  51 S12       29.77R HX  90
J F K          PTSUNNY   78  69  73 S15       29.80R
Boston         CLOUDY    88  56  33 W6        29.76R
Pittsburg      PTSUNNY   77  64  64 N3        29.84F
Akron          PTSUNNY   78  67  68 SE6       29.83F
Cleveland      PTSUNNY   81  66  60 VRB3      29.81F
Cincinnati     LGT RAIN  73  71  93 CALM      29.81F
Columbus       FAIR      85  65  52 MISG      29.78F
Detroit        PTSUNNY   77  66  68 S9        29.79S
Chicago O'Hare FAIR      89  59  36 W8        29.74F
Minneapolis    FAIR      93  54  26 W9        29.69F HX  91
Indianapolis   PTSUNNY   87  63  44 W14       29.78F
Toronto Canada PTSUNNY   81  61  50 S12       29.77S